This is the latest recevied weather packets stored in our database for station/object KN6CRX. If no packets are shown the sender has not sent any weather packets the latest 10 day(s).
| Time | Temp. | Humidity | Pressure | Rain* | Wind** | Luminosity | Snow |
|---|---|---|---|---|---|---|---|
| 1787937859 | 27.22° C | 38% | 1021.2 hPa | 0 mm | - | 436 W/m² | - |
| 1787937555 | 26.11° C | 40% | 1021.3 hPa | 0 mm | - | 713 W/m² | - |
| 1787937250 | 25° C | 44% | 1021.4 hPa | 0 mm | - | 692 W/m² | - |
| 1787936946 | 24.44° C | 46% | 1021.5 hPa | 0 mm | - | 266 W/m² | - |
| 1787936644 | 23.89° C | 50% | 1021.3 hPa | 0 mm | - | 644 W/m² | - |
| 1787936344 | 23.33° C | 51% | 1021.3 hPa | 0 mm | - | 178 W/m² | - |
| 1787936040 | 23.33° C | 51% | 1021.4 hPa | 0 mm | - | 195 W/m² | - |
| 1787935735 | 22.78° C | 54% | 1021.3 hPa | 0 mm | - | 473 W/m² | - |
| 1787935431 | 23.33° C | 54% | 1021.4 hPa | 0 mm | - | 234 W/m² | - |
| 1787935128 | 23.33° C | 58% | 1021.3 hPa | 0 mm | - | 213 W/m² | - |
| 1787934828 | 23.89° C | 54% | 1021.3 hPa | 0 mm | - | 190 W/m² | - |
| 1787934527 | 23.89° C | 55% | 1021.3 hPa | 0 mm | - | 233 W/m² | - |
| 1787934222 | 23.89° C | 55% | 1021.4 hPa | 0 mm | - | 274 W/m² | - |
| 1787933921 | 23.89° C | 49% | 1021.4 hPa | 0 mm | - | 192 W/m² | - |
| 1787933621 | 23.33° C | 51% | 1021.2 hPa | 0 mm | - | 247 W/m² | - |
| 1787933316 | 23.33° C | 52% | 1021.3 hPa | 0 mm | - | 201 W/m² | - |
| 1787933010 | 22.78° C | 54% | 1021.2 hPa | 0 mm | - | 180 W/m² | - |
| 1787932709 | 22.22° C | 58% | 1021.2 hPa | 0 mm | - | 200 W/m² | - |
| 1787932409 | 21.67° C | 57% | 1021.3 hPa | 0 mm | - | 212 W/m² | - |
| 1787932104 | 21.11° C | 61% | 1021.3 hPa | 0 mm | - | 165 W/m² | - |
| 1787931802 | 21.11° C | 62% | 1021.5 hPa | 0 mm | - | 139 W/m² | - |
| 1787931502 | 20.56° C | 61% | 1021 hPa | 0 mm | - | 146 W/m² | - |
| 1787931198 | 21.11° C | 64% | 1021.7 hPa | 0 mm | - | 93 W/m² | - |
| 1787930897 | 21.11° C | 59% | 1022.6 hPa | 0 mm | - | 50 W/m² | - |
| 1787930596 | 21.67° C | 56% | 1022.4 hPa | 0 mm | - | 44 W/m² | - |
* Rain latest hour (hover to see other rain measurements)
** Current wind speed in m/s (hover to see current wind gust speed)